This is the latest recevied weather packets stored in our database for station/object KF7ROW. If no packets are shown the sender has not sent any weather packets the latest 10 day(s).
| Time | Temp. | Humidity | Pressure | Rain* | Wind** | Luminosity | Snow |
|---|---|---|---|---|---|---|---|
| 1777588556 | 13.33° C | 88% | 1022.5 hPa | 0 mm | - | 344 W/m² | - |
| 1777588252 | 13.33° C | 88% | 1022.8 hPa | 0 mm | - | 631 W/m² | - |
| 1777587947 | 13.89° C | 86% | 1022.5 hPa | 0 mm | - | 593 W/m² | - |
| 1777587643 | 13.89° C | 86% | 1022.5 hPa | 0 mm | - | 558 W/m² | - |
| 1777587338 | 13.89° C | 85% | 1022.6 hPa | 0 mm | - | 659 W/m² | - |
| 1777587033 | 13.89° C | 87% | 1022.8 hPa | 0 mm | - | 661 W/m² | - |
| 1777586730 | 13.89° C | 85% | 1022.7 hPa | 0 mm | - | 672 W/m² | - |
| 1777586426 | 13.89° C | 86% | 1022.8 hPa | 0 mm | - | 550 W/m² | - |
| 1777586126 | 14.44° C | 85% | 1022.8 hPa | 0 mm | - | 696 W/m² | - |
| 1777585824 | 14.44° C | 83% | 1022.6 hPa | 0 mm | - | 700 W/m² | - |
| 1777585523 | 14.44° C | 83% | 1022.7 hPa | 0 mm | - | 703 W/m² | - |
| 1777585220 | 14.44° C | 84% | 1022.7 hPa | 0 mm | - | 718 W/m² | - |
| 1777584915 | 15° C | 82% | 1022.8 hPa | 0 mm | - | 717 W/m² | - |
| 1777584612 | 14.44° C | 84% | 1022.7 hPa | 0 mm | - | 725 W/m² | - |
| 1777584309 | 14.44° C | 83% | 1022.8 hPa | 0 mm | - | 707 W/m² | - |
| 1777584004 | 14.44° C | 83% | 1022.7 hPa | 0 mm | - | 426 W/m² | - |
| 1777583700 | 13.89° C | 84% | 1022.9 hPa | 0 mm | - | 786 W/m² | - |
| 1777583399 | 14.44° C | 83% | 1022.7 hPa | 0 mm | - | 654 W/m² | - |
| 1777583098 | 13.89° C | 84% | 1022.9 hPa | 0 mm | - | 800 W/m² | - |
| 1777582795 | 13.89° C | 85% | 1022.9 hPa | 0 mm | - | 416 W/m² | - |
| 1777582490 | 13.89° C | 85% | 1022.8 hPa | 0 mm | - | 831 W/m² | - |
| 1777582185 | 13.89° C | 85% | 1022.9 hPa | 0 mm | - | 580 W/m² | - |
| 1777581884 | 13.33° C | 85% | 1023 hPa | 0 mm | - | 761 W/m² | - |
| 1777581579 | 13.33° C | 86% | 1022.9 hPa | 0 mm | - | 779 W/m² | - |
| 1777581274 | 13.33° C | 86% | 1022.9 hPa | 0 mm | - | 808 W/m² | - |
* Rain latest hour (hover to see other rain measurements)
** Current wind speed in m/s (hover to see current wind gust speed)